Regional Weather Roundup
Issued by NWS Albany, NY

Home | Current Version | Previous Version | Text Only | Print | Product List | Glossary On
Versions: 1 2 3 4 5 6 7 8 9 10 11 12 13 14 15 16 17 18 19 20 21 22 23 24 25 26 27 28 29 30 31 32 33 34 35 36 37 38 39 40 41 42 43 44 45 46 47 48 49
000
ASUS41 KALY 042010
RWRALY

NEW YORK STATE HOURLY WEATHER ROUNDUP
NATIONAL WEATHER SERVICE ALBANY NY
400 PM EDT FRI SEP 04 2015

NOTE: "FAIR" INDICATES FEW OR NO CLOUDS BELOW 12,000 FEET WITH NO
SIGNIFICANT WEATHER AND/OR NO OBSTRUCTIONS TO VISIBILITY.

NYZ032-033-038>043-046>054-057>066-NYZ062>081-042100-
EAST


CITY           SKY/WX    TMP DP  RH WIND       PRES   REMARKS
ALBANY         MOSUNNY   84  64  50 CALM      30.12F
GLENS FALLS    SUNNY     82  60  47 CALM      30.12F
POUGHKEEPSIE   PTSUNNY   83  66  56 N3        30.10F
NEWBURGH       CLOUDY    79  68  69 E9        30.14S
MONTGOMERY     CLOUDY    80  68  66 NE7       30.12F
WHITE PLAINS   PTSUNNY   79  65  62 SE12      30.12F
ISLIP          PTSUNNY   82  64  54 NE13G21   30.09F
NEW YORK CITY  MOSUNNY   83  64  52 NE14      30.10S
CENTRAL PARK   MOSUNNY   84  64  50 E8        30.13S
$$

NYZ005>009-017-018-044>046-055-056-042100-
CENTRAL


CITY           SKY/WX    TMP DP  RH WIND       PRES   REMARKS
FULTON         SUNNY     86  63  45 NE7       30.09F
SYRACUSE       MOSUNNY   85  63  47 NE10      30.08F
ROME           SUNNY     86  60  41 E7        30.11F
ELMIRA         PTSUNNY   88  64  44 E6        30.07F
BINGHAMTON     SUNNY     83  65  54 E8        30.12F
MONTICELLO     CLOUDY    73  66  78 E9        30.18S
$$

NYZ026>034-041>043-042100-
NORTH


CITY           SKY/WX    TMP DP  RH WIND       PRES   REMARKS
WATERTOWN      SUNNY     84  52  33 N15       30.11S
FORT DRUM      NOT AVBL
MASSENA        SUNNY     78  55  44 NE15      30.17S
SARANAC LAKE   SUNNY     79  47  32 E9        30.17S
PLATTSBURGH    SUNNY     76  56  49 NE8       30.16S
$$

NYZ001>004-010>016-019>021-042100-
WEST


CITY           SKY/WX    TMP DP  RH WIND       PRES   REMARKS
NIAGARA FALLS  MOSUNNY   85  65  51 E9        30.06F
BUFFALO        MOSUNNY   85  64  49 NE8       30.07S
DUNKIRK        MOSUNNY   78  72  81 E7        30.06F
JAMESTOWN      MOSUNNY   79  68  69 N14       30.10S THUNDER
WELLSVILLE     SUNNY     87  62  43 VRB6      30.14F
ROCHESTER      MOSUNNY   80  62  54 NE13      30.10F
PENN YAN       MOSUNNY   83  67  58 CALM      30.11F
$$

             KEY
       WCI = WIND CHILL INDEX
       VSB = VISIBILITY
       HX  = HEAT INDEX
$$



USA.gov is the U.S. government's official web portal to all federal, state and local government web resources and services.